Year,Month,Day,Hour,Minute,Value (Times are PST for temperature in C)
2016,08,21,00,00,13.80
2016,08,21,00,01,13.80
2016,08,21,00,02,13.90
2016,08,21,00,03,13.90
2016,08,21,00,04,14.00
2016,08,21,00,06,14.10
2016,08,21,00,07,14.10
2016,08,21,00,08,14.20
2016,08,21,00,09,14.20
2016,08,21,00,10,14.20
2016,08,21,00,11,14.20
2016,08,21,00,12,14.20
2016,08,21,00,13,14.20
2016,08,21,00,14,14.20
2016,08,21,00,15,14.20
2016,08,21,00,16,14.20
2016,08,21,00,17,14.20
2016,08,21,00,18,14.20
2016,08,21,00,19,14.20
2016,08,21,00,20,14.20
2016,08,21,00,21,14.20
2016,08,21,00,22,14.20
2016,08,21,00,23,14.20
2016,08,21,00,24,14.20
2016,08,21,00,25,14.20
2016,08,21,00,26,14.20
2016,08,21,00,27,14.20
2016,08,21,00,28,14.20
2016,08,21,00,29,14.20
2016,08,21,00,30,14.20
2016,08,21,00,31,14.20
2016,08,21,00,32,14.20
2016,08,21,00,33,14.20
2016,08,21,00,34,14.20
2016,08,21,00,35,14.20
2016,08,21,00,36,14.20
2016,08,21,00,37,14.20
2016,08,21,00,38,14.10
2016,08,21,00,39,14.10
2016,08,21,00,40,14.10
2016,08,21,00,41,14.10
2016,08,21,00,42,14.10
2016,08,21,00,43,14.00
2016,08,21,00,44,14.00
2016,08,21,00,45,14.00
2016,08,21,00,46,14.00
2016,08,21,00,47,14.00
2016,08,21,00,48,14.00
2016,08,21,00,49,13.90
2016,08,21,00,50,13.90
2016,08,21,00,51,13.90
2016,08,21,00,52,13.90
2016,08,21,00,53,13.90
2016,08,21,00,54,13.80
2016,08,21,00,55,13.80
2016,08,21,00,56,13.80
2016,08,21,00,57,13.80
2016,08,21,00,58,13.80
2016,08,21,00,59,13.70
2016,08,21,01,00,13.70
2016,08,21,01,01,13.70
2016,08,21,01,02,13.70
2016,08,21,01,03,13.70
2016,08,21,01,04,13.70
2016,08,21,01,05,13.70
2016,08,21,01,06,13.60
2016,08,21,01,07,13.60
2016,08,21,01,08,13.60
2016,08,21,01,09,13.60
2016,08,21,01,10,13.60
2016,08,21,01,11,13.60
2016,08,21,01,12,13.60
2016,08,21,01,13,13.60
2016,08,21,01,14,13.50
2016,08,21,01,15,13.50
2016,08,21,01,16,13.50
2016,08,21,01,17,13.50
2016,08,21,01,18,13.50
2016,08,21,01,19,13.40
2016,08,21,01,21,13.40
2016,08,21,01,22,13.40
2016,08,21,01,23,13.40
2016,08,21,01,24,13.40
2016,08,21,01,26,13.30
2016,08,21,01,27,13.30
2016,08,21,01,28,13.30
2016,08,21,01,29,13.30
2016,08,21,01,31,13.30
2016,08,21,01,32,13.30
2016,08,21,01,33,13.30
2016,08,21,01,34,13.30
2016,08,21,01,36,13.30
2016,08,21,01,37,13.30
2016,08,21,01,38,13.30
2016,08,21,01,39,13.30
2016,08,21,01,41,13.20
2016,08,21,01,42,13.20
2016,08,21,01,43,13.20
2016,08,21,01,44,13.20
2016,08,21,01,46,13.20
2016,08,21,01,47,13.20
2016,08,21,01,48,13.10
2016,08,21,01,49,13.10
2016,08,21,01,51,13.10
2016,08,21,01,52,13.10
2016,08,21,01,53,13.00
2016,08,21,01,54,13.00
2016,08,21,01,56,13.00
2016,08,21,01,57,12.90
2016,08,21,01,58,12.90
2016,08,21,01,59,12.90
2016,08,21,02,01,12.90
2016,08,21,02,02,12.90
2016,08,21,02,03,12.80
2016,08,21,02,04,12.80
2016,08,21,02,06,12.80
2016,08,21,02,07,12.80
2016,08,21,02,08,12.80
2016,08,21,02,09,12.80
2016,08,21,02,11,12.80
2016,08,21,02,12,12.80
2016,08,21,02,13,12.80
2016,08,21,02,14,12.80
2016,08,21,02,16,12.80
2016,08,21,02,17,12.80
2016,08,21,02,18,12.80
2016,08,21,02,19,12.80
2016,08,21,02,21,12.80
2016,08,21,02,22,12.80
2016,08,21,02,23,12.80
2016,08,21,02,24,12.80
2016,08,21,02,26,12.80
2016,08,21,02,27,12.80
2016,08,21,02,28,12.80
2016,08,21,02,29,12.80
2016,08,21,02,31,12.80
2016,08,21,02,32,12.80
2016,08,21,02,33,12.70
2016,08,21,02,34,12.70
2016,08,21,02,36,12.70
2016,08,21,02,37,12.70
2016,08,21,02,38,12.70
2016,08,21,02,39,12.70
2016,08,21,02,40,12.70
2016,08,21,02,41,12.70
2016,08,21,02,42,12.70
2016,08,21,02,43,12.60
2016,08,21,02,44,12.60
2016,08,21,02,46,12.60
2016,08,21,02,47,12.60
2016,08,21,02,48,12.60
2016,08,21,02,49,12.60
2016,08,21,02,50,12.60
2016,08,21,02,51,12.60
2016,08,21,02,52,12.60
2016,08,21,02,53,12.60
2016,08,21,02,54,12.60
2016,08,21,02,55,12.70
2016,08,21,02,56,12.70
2016,08,21,02,57,12.70
2016,08,21,02,58,12.70
2016,08,21,02,59,12.70
2016,08,21,03,00,12.80
2016,08,21,03,01,12.80
2016,08,21,03,02,12.80
2016,08,21,03,03,12.80
2016,08,21,03,04,12.80
2016,08,21,03,05,12.80
2016,08,21,03,06,12.80
2016,08,21,03,07,12.80
2016,08,21,03,08,12.80
2016,08,21,03,09,12.80
2016,08,21,03,10,12.90
2016,08,21,03,11,12.90
2016,08,21,03,12,12.90
2016,08,21,03,13,12.90
2016,08,21,03,14,13.00
2016,08,21,03,15,13.00
2016,08,21,03,16,13.00
2016,08,21,03,17,13.00
2016,08,21,03,18,13.10
2016,08,21,03,19,13.10
2016,08,21,03,20,13.10
2016,08,21,03,21,13.10
2016,08,21,03,22,13.10
2016,08,21,03,23,13.10
2016,08,21,03,24,13.10
2016,08,21,03,25,13.10
2016,08,21,03,26,13.10
2016,08,21,03,27,13.10
2016,08,21,03,28,13.10
2016,08,21,03,29,13.10
2016,08,21,03,30,13.10
2016,08,21,03,31,13.10
2016,08,21,03,32,13.10
2016,08,21,03,33,13.10
2016,08,21,03,34,13.10
2016,08,21,03,35,13.10
2016,08,21,03,36,13.10
2016,08,21,03,37,13.10
2016,08,21,03,38,13.10
2016,08,21,03,40,13.00
2016,08,21,03,41,13.00
2016,08,21,03,42,13.00
2016,08,21,03,43,13.00
2016,08,21,03,44,13.00
2016,08,21,03,45,13.00
2016,08,21,03,46,12.90
2016,08,21,03,47,12.90
2016,08,21,03,48,12.90
2016,08,21,03,49,12.80
2016,08,21,03,51,12.80
2016,08,21,03,52,12.80
2016,08,21,03,53,12.80
2016,08,21,03,54,12.70
2016,08,21,03,56,12.70
2016,08,21,03,57,12.70
2016,08,21,03,58,12.60
2016,08,21,03,59,12.60
2016,08,21,04,01,12.60
2016,08,21,04,02,12.50
2016,08,21,04,03,12.50
2016,08,21,04,04,12.50
2016,08,21,04,06,12.50
2016,08,21,04,07,12.40
2016,08,21,04,08,12.40
2016,08,21,04,09,12.40
2016,08,21,04,11,12.40
2016,08,21,04,12,12.40
2016,08,21,04,13,12.40
2016,08,21,04,14,12.30
2016,08,21,04,16,12.30
2016,08,21,04,17,12.30
2016,08,21,04,18,12.30
2016,08,21,04,19,12.30
2016,08,21,04,21,12.30
2016,08,21,04,22,12.30
2016,08,21,04,23,12.30
2016,08,21,04,24,12.30
2016,08,21,04,26,12.30
2016,08,21,04,27,12.30
2016,08,21,04,28,12.30
2016,08,21,04,29,12.30
2016,08,21,04,31,12.30
2016,08,21,04,32,12.30
2016,08,21,04,33,12.30
2016,08,21,04,34,12.30
2016,08,21,04,36,12.30
2016,08,21,04,37,12.30
2016,08,21,04,38,12.30
2016,08,21,04,39,12.30
2016,08,21,04,41,12.30
2016,08,21,04,42,12.30
2016,08,21,04,43,12.30
2016,08,21,04,44,12.30
2016,08,21,04,46,12.30
2016,08,21,04,47,12.30
2016,08,21,04,48,12.30
2016,08,21,04,49,12.30
2016,08,21,04,51,12.30
2016,08,21,04,52,12.30
2016,08,21,04,53,12.30
2016,08,21,04,54,12.30
2016,08,21,04,55,12.30
2016,08,21,04,56,12.30
2016,08,21,04,57,12.30
2016,08,21,04,58,12.30
2016,08,21,04,59,12.30
2016,08,21,05,00,12.30
2016,08,21,05,01,12.30
2016,08,21,05,02,12.30
2016,08,21,05,03,12.30
2016,08,21,05,04,12.30
2016,08,21,05,06,12.30
2016,08,21,05,07,12.30
2016,08,21,05,08,12.30
2016,08,21,05,09,12.30
2016,08,21,05,10,12.30
2016,08,21,05,11,12.30
2016,08,21,05,12,12.30
2016,08,21,05,13,12.30
2016,08,21,05,14,12.30
2016,08,21,05,15,12.30
2016,08,21,05,16,12.30
2016,08,21,05,17,12.30
2016,08,21,05,18,12.30
2016,08,21,05,19,12.30
2016,08,21,05,20,12.30
2016,08,21,05,21,12.30
2016,08,21,05,22,12.30
2016,08,21,05,23,12.30
2016,08,21,05,24,12.30
2016,08,21,05,25,12.30
2016,08,21,05,26,12.30
2016,08,21,05,27,12.30
2016,08,21,05,28,12.30
2016,08,21,05,29,12.30
2016,08,21,05,30,12.30
2016,08,21,05,31,12.30
2016,08,21,05,32,12.30
2016,08,21,05,33,12.30
2016,08,21,05,34,12.30
2016,08,21,05,35,12.30
2016,08,21,05,36,12.30
2016,08,21,05,37,12.30
2016,08,21,05,38,12.30
2016,08,21,05,39,12.30
2016,08,21,05,40,12.30
2016,08,21,05,41,12.30
2016,08,21,05,42,12.30
2016,08,21,05,43,12.30
2016,08,21,05,44,12.40
2016,08,21,05,45,12.50
2016,08,21,05,46,12.50
2016,08,21,05,47,12.60
2016,08,21,05,48,12.60
2016,08,21,05,49,12.70
2016,08,21,05,50,12.80
2016,08,21,05,51,12.80
2016,08,21,05,52,12.80
2016,08,21,05,53,12.90
2016,08,21,05,54,13.00
2016,08,21,05,55,13.10
2016,08,21,05,56,13.20
2016,08,21,05,57,13.20
2016,08,21,05,58,13.30
2016,08,21,05,59,13.30
2016,08,21,06,00,13.30
2016,08,21,06,01,13.40
2016,08,21,06,02,13.50
2016,08,21,06,03,13.50
2016,08,21,06,04,13.60
2016,08,21,06,05,13.60
2016,08,21,06,07,13.70
2016,08,21,06,08,13.70
2016,08,21,06,09,13.70
2016,08,21,06,10,13.70
2016,08,21,06,11,13.70
2016,08,21,06,12,13.80
2016,08,21,06,13,13.80
2016,08,21,06,14,13.80
2016,08,21,06,15,13.90
2016,08,21,06,16,13.90
2016,08,21,06,17,13.90
2016,08,21,06,18,13.90
2016,08,21,06,19,14.00
2016,08,21,06,20,14.00
2016,08,21,06,21,14.00
2016,08,21,06,22,14.00
2016,08,21,06,23,14.00
2016,08,21,06,24,14.00
2016,08,21,06,25,14.10
2016,08,21,06,26,14.10
2016,08,21,06,27,14.10
2016,08,21,06,28,14.20
2016,08,21,06,29,14.20
2016,08,21,06,30,14.20
2016,08,21,06,31,14.20
2016,08,21,06,32,14.20
2016,08,21,06,33,14.20
2016,08,21,06,34,14.20
2016,08,21,06,35,14.20
2016,08,21,06,36,14.20
2016,08,21,06,37,14.30
2016,08,21,06,39,14.30
2016,08,21,06,41,14.30
2016,08,21,06,42,14.40
2016,08,21,06,43,14.40
2016,08,21,06,46,14.40
2016,08,21,06,47,14.40
2016,08,21,06,48,14.40
2016,08,21,06,49,14.40
2016,08,21,06,51,14.50
2016,08,21,06,52,14.50
2016,08,21,06,53,14.50
2016,08,21,06,54,14.60
2016,08,21,06,56,14.60
2016,08,21,06,57,14.60
2016,08,21,06,58,14.60
2016,08,21,06,59,14.70
2016,08,21,07,01,14.70
2016,08,21,07,02,14.70
2016,08,21,07,03,14.70
2016,08,21,07,04,14.70
2016,08,21,07,06,14.80
2016,08,21,07,07,14.80
2016,08,21,07,08,14.80
2016,08,21,07,09,14.80
2016,08,21,07,11,14.80
2016,08,21,07,12,14.80
2016,08,21,07,13,14.80
2016,08,21,07,14,14.80
2016,08,21,07,16,14.90
2016,08,21,07,17,14.90
2016,08,21,07,18,14.90
2016,08,21,07,19,15.00
2016,08,21,07,21,15.00
2016,08,21,07,22,15.00
2016,08,21,07,23,15.00
2016,08,21,07,24,15.00
2016,08,21,07,26,15.10
2016,08,21,07,27,15.10
2016,08,21,07,28,15.10
2016,08,21,07,29,15.10
2016,08,21,07,31,15.20
2016,08,21,07,32,15.20
2016,08,21,07,33,15.20
2016,08,21,07,34,15.20
2016,08,21,07,36,15.20
2016,08,21,07,37,15.20
2016,08,21,07,38,15.20
2016,08,21,07,39,15.20
2016,08,21,07,41,15.30
2016,08,21,07,42,15.30
2016,08,21,07,43,15.30
2016,08,21,07,44,15.30
2016,08,21,07,46,15.30
2016,08,21,07,47,15.30
2016,08,21,07,48,15.30
2016,08,21,07,49,15.30
2016,08,21,07,51,15.30
2016,08,21,07,52,15.30
2016,08,21,07,53,15.30
2016,08,21,07,54,15.30
2016,08,21,07,55,15.30
2016,08,21,07,56,15.30
2016,08,21,07,57,15.40
2016,08,21,07,58,15.40
2016,08,21,07,59,15.40
2016,08,21,08,00,15.40
2016,08,21,08,01,15.40
2016,08,21,08,02,15.40
2016,08,21,08,03,15.40
2016,08,21,08,04,15.40
2016,08,21,08,06,15.50
2016,08,21,08,07,15.50
2016,08,21,08,08,15.60
2016,08,21,08,09,15.60
2016,08,21,08,10,15.70
2016,08,21,08,11,15.70
2016,08,21,08,12,15.80
2016,08,21,08,13,15.80
2016,08,21,08,14,15.80
2016,08,21,08,15,15.80
2016,08,21,08,16,15.90
2016,08,21,08,17,16.10
2016,08,21,08,18,16.10
2016,08,21,08,19,16.10
2016,08,21,08,20,16.20
2016,08,21,08,21,16.20
2016,08,21,08,22,16.30
2016,08,21,08,23,16.40
2016,08,21,08,24,16.40
2016,08,21,08,25,16.40
2016,08,21,08,26,16.60
2016,08,21,08,27,16.70
2016,08,21,08,28,16.70
2016,08,21,08,29,16.70
2016,08,21,08,30,16.80
2016,08,21,08,31,16.90
2016,08,21,08,32,16.90
2016,08,21,08,33,17.00
2016,08,21,08,34,17.10
2016,08,21,08,35,17.20
2016,08,21,08,36,17.30
2016,08,21,08,37,17.30
2016,08,21,08,38,17.30
2016,08,21,08,39,17.30
2016,08,21,08,40,17.30
2016,08,21,08,41,17.40
2016,08,21,08,42,17.40
2016,08,21,08,43,17.50
2016,08,21,08,44,17.50
2016,08,21,08,45,17.60
2016,08,21,08,46,17.60
2016,08,21,08,47,17.70
2016,08,21,08,48,17.70
2016,08,21,08,49,17.70
2016,08,21,08,50,17.80
2016,08,21,08,51,17.80
2016,08,21,08,52,17.80
2016,08,21,08,53,17.90
2016,08,21,08,54,17.90
2016,08,21,08,55,17.90
2016,08,21,08,56,17.90
2016,08,21,08,57,17.90
2016,08,21,08,58,17.90
2016,08,21,08,59,17.90
2016,08,21,09,00,17.90
2016,08,21,09,01,17.90
2016,08,21,09,02,17.90
2016,08,21,09,03,17.90
2016,08,21,09,04,17.90
2016,08,21,09,05,18.10
2016,08,21,09,06,18.10
2016,08,21,09,07,18.10
2016,08,21,09,08,18.10
2016,08,21,09,09,18.10
2016,08,21,09,10,18.10
2016,08,21,09,11,18.10
2016,08,21,09,12,18.20
2016,08,21,09,13,18.20
2016,08,21,09,14,18.20
2016,08,21,09,15,18.20
2016,08,21,09,16,18.20
2016,08,21,09,17,18.20
2016,08,21,09,18,18.20
2016,08,21,09,19,18.20
2016,08,21,09,21,18.30
2016,08,21,09,22,18.30
2016,08,21,09,23,18.30
2016,08,21,09,24,18.40
2016,08,21,09,26,18.30
2016,08,21,09,27,18.30
2016,08,21,09,28,18.30
2016,08,21,09,29,18.30
2016,08,21,09,31,18.30
2016,08,21,09,32,18.20
2016,08,21,09,33,18.20
2016,08,21,09,34,18.20
2016,08,21,09,36,18.10
2016,08,21,09,37,18.10
2016,08,21,09,38,18.10
2016,08,21,09,39,18.10
2016,08,21,09,41,18.20
2016,08,21,09,42,18.20
2016,08,21,09,43,18.30
2016,08,21,09,44,18.30
2016,08,21,09,46,18.40
2016,08,21,09,47,18.40
2016,08,21,09,48,18.50
2016,08,21,09,49,18.50
2016,08,21,09,51,18.60
2016,08,21,09,52,18.60
2016,08,21,09,53,18.60
2016,08,21,09,54,18.70
2016,08,21,09,56,18.70
2016,08,21,09,57,18.70
2016,08,21,09,58,18.70
2016,08,21,09,59,18.80
2016,08,21,10,01,18.90
2016,08,21,10,02,18.90
2016,08,21,10,03,18.90
2016,08,21,10,04,18.90
2016,08,21,10,06,18.90
2016,08,21,10,07,18.90
2016,08,21,10,08,19.10
2016,08,21,10,09,19.10
2016,08,21,10,11,19.10
2016,08,21,10,12,19.10
2016,08,21,10,13,19.10
2016,08,21,10,14,19.10
2016,08,21,10,16,19.10
2016,08,21,10,17,19.10
2016,08,21,10,18,19.10
2016,08,21,10,19,19.10
2016,08,21,10,21,19.10
2016,08,21,10,22,19.10
2016,08,21,10,23,19.10
2016,08,21,10,24,19.10
2016,08,21,10,26,19.10
2016,08,21,10,27,19.10
2016,08,21,10,28,19.10
2016,08,21,10,29,19.10
2016,08,21,10,31,19.10
2016,08,21,10,32,18.90
2016,08,21,10,33,18.90
2016,08,21,10,34,18.90
2016,08,21,10,36,18.90
2016,08,21,10,37,18.90
2016,08,21,10,38,18.90
2016,08,21,10,39,18.90
2016,08,21,10,41,19.10
2016,08,21,10,42,19.10
2016,08,21,10,43,19.10
2016,08,21,10,44,19.10
2016,08,21,10,45,19.10
2016,08,21,10,46,19.10
2016,08,21,10,47,19.10
2016,08,21,10,48,19.10
2016,08,21,10,49,19.20
2016,08,21,10,50,19.20
2016,08,21,10,51,19.20
2016,08,21,10,52,19.30
2016,08,21,10,53,19.30
2016,08,21,10,54,19.30
2016,08,21,10,55,19.30
2016,08,21,10,56,19.30
2016,08,21,10,57,19.30
2016,08,21,10,58,19.40
2016,08,21,10,59,19.50
2016,08,21,11,00,19.50
2016,08,21,11,01,19.50
2016,08,21,11,02,19.60
2016,08,21,11,03,19.50
2016,08,21,11,04,19.50
2016,08,21,11,05,19.40
2016,08,21,11,06,19.30
2016,08,21,11,07,19.30
2016,08,21,11,08,19.20
2016,08,21,11,09,19.10
2016,08,21,11,10,19.10
2016,08,21,11,11,19.10
2016,08,21,11,12,19.10
2016,08,21,11,13,19.10
2016,08,21,11,14,19.10
2016,08,21,11,15,19.20
2016,08,21,11,16,19.20
2016,08,21,11,17,19.30
2016,08,21,11,18,19.30
2016,08,21,11,19,19.40
2016,08,21,11,20,19.40
2016,08,21,11,21,19.40
2016,08,21,11,22,19.50
2016,08,21,11,23,19.50
2016,08,21,11,24,19.50
2016,08,21,11,25,19.50
2016,08,21,11,26,19.50
2016,08,21,11,27,19.50
2016,08,21,11,28,19.50
2016,08,21,11,29,19.60
2016,08,21,11,30,19.60
2016,08,21,11,31,19.60
2016,08,21,11,32,19.60
2016,08,21,11,33,19.70
2016,08,21,11,34,19.70
2016,08,21,11,35,19.80
2016,08,21,11,36,19.90
2016,08,21,11,37,19.90
2016,08,21,11,38,19.90
2016,08,21,11,39,20.10
2016,08,21,11,40,20.20
2016,08,21,11,41,20.20
2016,08,21,11,42,20.20
2016,08,21,11,43,20.20
2016,08,21,11,44,20.20
2016,08,21,11,45,20.20
2016,08,21,11,46,20.20
2016,08,21,11,47,20.20
2016,08,21,11,48,20.30
2016,08,21,11,49,20.30
2016,08,21,11,50,20.40
2016,08,21,11,51,20.40
2016,08,21,11,52,20.50
2016,08,21,11,53,20.50
2016,08,21,11,54,20.50
2016,08,21,11,56,20.50
2016,08,21,11,57,20.60
2016,08,21,11,58,20.60
2016,08,21,11,59,20.70
2016,08,21,12,00,20.70
2016,08,21,12,01,20.70
2016,08,21,12,02,20.70
2016,08,21,12,03,20.60
2016,08,21,12,04,20.70
2016,08,21,12,05,20.70
2016,08,21,12,06,20.70
2016,08,21,12,07,20.70
2016,08,21,12,08,20.70
2016,08,21,12,09,20.80
2016,08,21,12,11,20.90
2016,08,21,12,12,20.90
2016,08,21,12,13,20.90
2016,08,21,12,14,20.80
2016,08,21,12,16,20.80
2016,08,21,12,17,20.80
2016,08,21,12,18,20.70
2016,08,21,12,19,20.60
2016,08,21,12,21,20.40
2016,08,21,12,22,20.30
2016,08,21,12,23,20.20
2016,08,21,12,24,20.20
2016,08,21,12,26,19.90
2016,08,21,12,27,19.70
2016,08,21,12,28,19.70
2016,08,21,12,29,19.60
2016,08,21,12,31,19.60
2016,08,21,12,32,19.60
2016,08,21,12,33,19.60
2016,08,21,12,34,19.70
2016,08,21,12,36,19.70
2016,08,21,12,37,19.80
2016,08,21,12,38,19.80
2016,08,21,12,39,19.90
2016,08,21,12,41,19.90
2016,08,21,12,42,19.90
2016,08,21,12,43,20.10
2016,08,21,12,44,20.10
2016,08,21,12,46,20.20
2016,08,21,12,47,20.20
2016,08,21,12,48,20.20
2016,08,21,12,49,20.20
2016,08,21,12,51,20.20
2016,08,21,12,52,20.20
2016,08,21,12,53,20.20
2016,08,21,12,54,20.20
2016,08,21,12,56,20.20
2016,08,21,12,57,20.10
2016,08,21,12,58,20.10
2016,08,21,12,59,20.10
2016,08,21,13,01,20.10
2016,08,21,13,02,20.10
2016,08,21,13,03,20.10
2016,08,21,13,04,20.10
2016,08,21,13,06,20.10
2016,08,21,13,07,20.20
2016,08,21,13,08,20.20
2016,08,21,13,09,20.20
2016,08,21,13,11,20.20
2016,08,21,13,12,20.20
2016,08,21,13,13,20.20
2016,08,21,13,14,20.20
2016,08,21,13,16,20.20
2016,08,21,13,17,20.20
2016,08,21,13,18,20.20
2016,08,21,13,19,20.30
2016,08,21,13,21,20.30
2016,08,21,13,22,20.30
2016,08,21,13,23,20.30
2016,08,21,13,24,20.30
2016,08,21,13,25,20.30
2016,08,21,13,26,20.30
2016,08,21,13,27,20.30
2016,08,21,13,28,20.30
2016,08,21,13,29,20.30
2016,08,21,13,31,20.20
2016,08,21,13,32,20.20
2016,08,21,13,33,20.20
2016,08,21,13,34,20.10
2016,08,21,13,36,20.10
2016,08,21,13,37,20.10
2016,08,21,13,38,20.10
2016,08,21,13,39,20.10
2016,08,21,13,40,20.10
2016,08,21,13,41,20.10
2016,08,21,13,42,20.10
2016,08,21,13,43,19.90
2016,08,21,13,44,19.90
2016,08,21,13,45,19.90
2016,08,21,13,46,19.90
2016,08,21,13,47,19.90
2016,08,21,13,48,19.90
2016,08,21,13,49,19.90
2016,08,21,13,50,19.90
2016,08,21,13,51,19.90
2016,08,21,13,52,19.90
2016,08,21,13,53,19.90
2016,08,21,13,54,19.80
2016,08,21,13,55,19.80
2016,08,21,13,56,19.80
2016,08,21,13,57,19.80
2016,08,21,13,58,19.70
2016,08,21,13,59,19.70
2016,08,21,14,00,19.60
2016,08,21,14,01,19.60
2016,08,21,14,02,19.50
2016,08,21,14,03,19.50
2016,08,21,14,04,19.40
2016,08,21,14,05,19.40
2016,08,21,14,06,19.30
2016,08,21,14,07,19.30
2016,08,21,14,08,19.30
2016,08,21,14,09,19.20
2016,08,21,14,10,19.20
2016,08,21,14,11,19.10
2016,08,21,14,12,19.10
2016,08,21,14,13,19.10
2016,08,21,14,14,19.10
2016,08,21,14,15,19.10
2016,08,21,14,16,19.10
2016,08,21,14,17,19.10
2016,08,21,14,18,19.10
2016,08,21,14,19,19.10
2016,08,21,14,20,19.10
2016,08,21,14,21,19.20
2016,08,21,14,22,19.20
2016,08,21,14,23,19.20
2016,08,21,14,24,19.20
2016,08,21,14,25,19.20
2016,08,21,14,26,19.20
2016,08,21,14,27,19.20
2016,08,21,14,28,19.20
2016,08,21,14,29,19.20
2016,08,21,14,30,19.20
2016,08,21,14,31,19.20
2016,08,21,14,32,19.10
2016,08,21,14,33,19.10
2016,08,21,14,34,19.10
2016,08,21,14,35,19.10
2016,08,21,14,36,19.10
2016,08,21,14,37,19.10
2016,08,21,14,38,19.10
2016,08,21,14,39,19.10
2016,08,21,14,40,19.10
2016,08,21,14,41,19.10
2016,08,21,14,42,19.10
2016,08,21,14,43,19.10
2016,08,21,14,44,19.20
2016,08,21,14,45,19.30
2016,08,21,14,46,19.30
2016,08,21,14,47,19.40
2016,08,21,14,48,19.50
2016,08,21,14,49,19.50
2016,08,21,14,50,19.60
2016,08,21,14,51,19.70
2016,08,21,14,52,19.70
2016,08,21,14,53,19.70
2016,08,21,14,54,19.80
2016,08,21,14,56,19.80
2016,08,21,14,57,19.90
2016,08,21,14,58,19.90
2016,08,21,14,59,19.90
2016,08,21,15,00,19.90
2016,08,21,15,02,19.90
2016,08,21,15,03,20.10
2016,08,21,15,04,20.10
2016,08,21,15,06,20.20
2016,08,21,15,07,20.20
2016,08,21,15,08,20.20
2016,08,21,15,09,20.30
2016,08,21,15,11,20.30
2016,08,21,15,12,20.30
2016,08,21,15,13,20.30
2016,08,21,15,14,20.30
2016,08,21,15,16,20.30
2016,08,21,15,17,20.30
2016,08,21,15,18,20.30
2016,08,21,15,19,20.30
2016,08,21,15,21,20.30
2016,08,21,15,22,20.20
2016,08,21,15,23,20.20
2016,08,21,15,24,20.20
2016,08,21,15,26,20.20
2016,08,21,15,27,20.10
2016,08,21,15,28,20.10
2016,08,21,15,29,20.10
2016,08,21,15,31,20.20
2016,08,21,15,32,20.20
2016,08,21,15,33,20.20
2016,08,21,15,34,20.20
2016,08,21,15,36,20.30
2016,08,21,15,37,20.40
2016,08,21,15,38,20.50
2016,08,21,15,39,20.50
2016,08,21,15,41,20.50
2016,08,21,15,42,20.50
2016,08,21,15,43,20.50
2016,08,21,15,44,20.50
2016,08,21,15,46,20.50
2016,08,21,15,47,20.40
2016,08,21,15,48,20.40
2016,08,21,15,49,20.40
2016,08,21,15,51,20.40
2016,08,21,15,52,20.40
2016,08,21,15,53,20.30
2016,08,21,15,54,20.20
2016,08,21,15,56,20.20
2016,08,21,15,57,20.10
2016,08,21,15,58,20.10
2016,08,21,15,59,20.10
2016,08,21,16,01,20.10
2016,08,21,16,02,20.10
2016,08,21,16,03,19.90
2016,08,21,16,04,19.90
2016,08,21,16,06,19.90
2016,08,21,16,07,19.90
2016,08,21,16,08,19.90
2016,08,21,16,09,19.90
2016,08,21,16,11,19.90
2016,08,21,16,12,19.90
2016,08,21,16,13,19.90
2016,08,21,16,14,19.90
2016,08,21,16,15,19.90
2016,08,21,16,16,19.90
2016,08,21,16,17,19.90
2016,08,21,16,18,19.90
2016,08,21,16,19,19.90
2016,08,21,16,20,19.90
2016,08,21,16,21,19.90
2016,08,21,16,22,19.90
2016,08,21,16,23,19.90
2016,08,21,16,24,19.90
2016,08,21,16,25,19.90
2016,08,21,16,26,19.80
2016,08,21,16,27,19.80
2016,08,21,16,28,19.80
2016,08,21,16,29,19.80
2016,08,21,16,30,19.70
2016,08,21,16,31,19.70
2016,08,21,16,32,19.60
2016,08,21,16,33,19.50
2016,08,21,16,34,19.50
2016,08,21,16,35,19.40
2016,08,21,16,36,19.40
2016,08,21,16,37,19.40
2016,08,21,16,38,19.30
2016,08,21,16,39,19.30
2016,08,21,16,40,19.30
2016,08,21,16,41,19.20
2016,08,21,16,42,19.20
2016,08,21,16,43,19.20
2016,08,21,16,44,19.10
2016,08,21,16,45,19.10
2016,08,21,16,46,19.10
2016,08,21,16,47,19.10
2016,08,21,16,48,19.10
2016,08,21,16,49,19.10
2016,08,21,16,50,19.10
2016,08,21,16,51,19.10
2016,08,21,16,52,19.10
2016,08,21,16,53,19.10
2016,08,21,16,54,19.10
2016,08,21,16,55,19.10
2016,08,21,16,56,19.10
2016,08,21,16,57,18.90
2016,08,21,16,58,18.90
2016,08,21,16,59,18.90
2016,08,21,17,00,18.90
2016,08,21,17,01,18.90
2016,08,21,17,02,18.90
2016,08,21,17,03,18.90
2016,08,21,17,04,18.90
2016,08,21,17,05,18.80
2016,08,21,17,06,18.80
2016,08,21,17,07,18.70
2016,08,21,17,08,18.70
2016,08,21,17,09,18.70
2016,08,21,17,10,18.70
2016,08,21,17,11,18.60
2016,08,21,17,12,18.60
2016,08,21,17,13,18.60
2016,08,21,17,14,18.60
2016,08,21,17,15,18.70
2016,08,21,17,16,18.70
2016,08,21,17,17,18.70
2016,08,21,17,18,18.70
2016,08,21,17,19,18.70
2016,08,21,17,20,18.70
2016,08,21,17,21,18.70
2016,08,21,17,22,18.70
2016,08,21,17,23,18.70
2016,08,21,17,24,18.70
2016,08,21,17,25,18.70
2016,08,21,17,26,18.60
2016,08,21,17,27,18.60
2016,08,21,17,28,18.60
2016,08,21,17,29,18.50
2016,08,21,17,30,18.50
2016,08,21,17,31,18.40
2016,08,21,17,32,18.30
2016,08,21,17,33,18.30
2016,08,21,17,34,18.30
2016,08,21,17,35,18.30
2016,08,21,17,36,18.30
2016,08,21,17,37,18.30
2016,08,21,17,38,18.30
2016,08,21,17,39,18.30
2016,08,21,17,42,18.20
2016,08,21,17,43,18.10
2016,08,21,17,44,17.90
2016,08,21,17,46,17.90
2016,08,21,17,47,17.90
2016,08,21,17,48,17.80
2016,08,21,17,49,17.80
2016,08,21,17,51,17.80
2016,08,21,17,52,17.80
2016,08,21,17,53,17.80
2016,08,21,17,54,17.80
2016,08,21,17,56,17.80
2016,08,21,17,57,17.80
2016,08,21,17,58,17.80
2016,08,21,17,59,17.70
2016,08,21,18,01,17.70
2016,08,21,18,02,17.70
2016,08,21,18,03,17.60
2016,08,21,18,04,17.60
2016,08,21,18,06,17.60
2016,08,21,18,07,17.50
2016,08,21,18,08,17.50
2016,08,21,18,09,17.50
2016,08,21,18,11,17.50
2016,08,21,18,12,17.50
2016,08,21,18,13,17.50
2016,08,21,18,14,17.50
2016,08,21,19,15,15.80
2016,08,21,19,17,15.70
2016,08,21,19,18,15.70
2016,08,21,19,19,15.60
2016,08,21,19,21,15.60
2016,08,21,19,22,15.60
2016,08,21,19,23,15.50
2016,08,21,19,24,15.50
2016,08,21,19,26,15.50
2016,08,21,19,27,15.50
2016,08,21,19,28,15.50
2016,08,21,19,29,15.40
2016,08,21,19,31,15.40
2016,08,21,19,32,15.40
2016,08,21,19,33,15.30
2016,08,21,19,34,15.30
2016,08,21,19,36,15.30
2016,08,21,19,37,15.30
2016,08,21,19,38,15.30
2016,08,21,19,39,15.30
2016,08,21,19,41,15.20
2016,08,21,19,42,15.20
2016,08,21,19,43,15.20
2016,08,21,19,44,15.20
2016,08,21,19,46,15.10
2016,08,21,19,47,15.10
2016,08,21,19,48,15.10
2016,08,21,19,49,15.10
2016,08,21,19,51,15.00
2016,08,21,19,52,15.00
2016,08,21,19,53,15.00
2016,08,21,19,54,15.00
2016,08,21,19,56,15.00
2016,08,21,19,57,14.90
2016,08,21,19,58,14.90
2016,08,21,19,59,14.90
2016,08,21,20,01,14.90
2016,08,21,20,02,14.90
2016,08,21,20,03,14.90
2016,08,21,20,04,14.90
2016,08,21,20,06,14.90
2016,08,21,20,07,14.90
2016,08,21,20,08,14.80
2016,08,21,20,09,14.80
2016,08,21,20,11,14.80
2016,08,21,20,12,14.80
2016,08,21,20,13,14.80
2016,08,21,20,14,14.80
2016,08,21,20,16,14.80
2016,08,21,20,17,14.80
2016,08,21,20,18,14.80
2016,08,21,20,19,14.80
2016,08,21,20,21,14.80
2016,08,21,20,22,14.80
2016,08,21,20,23,14.80
2016,08,21,20,24,14.80